全球卫星定位系统 GPS 77星 (NAVSTAR 77 (USA 289))

导读

NAVSTAR 77(USA 289)是美国于2018年12月23日发射的GPS III系列首颗导航卫星,由SpaceX使用猎鹰9号Block 5火箭从卡纳维拉尔角发射入轨,定轨倾角55度的中地球轨道,轨道周期约718分钟。它是GPS现代化升级的首星,相比前代提升了导航精度与抗干扰能力,编号PRN 13,目前承担全球定位导航与授时服务,为美国全球战略和民用导航提供支撑。

基本信息
目录编号:
43873
目录名称:
NAVSTAR 77 (USA 289)
国际标识:
2018-109A
轨道中心:
EARTH
卫星名称:
GPS 77星
卫星全名:
全球卫星定位系统 GPS 77星 (NAVSTAR 77 (USA 289))
卫星状态:
在轨 (已飞行2728 天)
发射日期:
2018-12-23 UTC
国别 :
美国 (US)
星等 :
--
轨道信息
数据来源 国际轨道数据 AOE轨道数据
星历时间 2026-06-12T02:50:14+0800
23小时前
查看轨道信息
2026-06-12T15:00:00+0800
11小时前
查看轨道信息
半长轴 26560.552km 26560.534km
偏心率 0.0038177 0.0038109
轨道倾角 55.679° 55.679°
近地点辐角 198.045° 197.973°
升交点赤经 92.400° 92.380°
平近点角 345.022° 351.013°
近地点 20081.014km 20081.177km
远地点 20283.816km 20283.617km
周期 717.985分钟 717.984分钟
每日圈数 2.005613 2.005615
详细信息
平衡模式:
三轴稳定
覆盖范围:
全球
运营商:
美国太空军
运营商所在国:
美国
制造商(研发单位):
洛克希德·马丁公司
制造商所在国:
美国
使用方式:
暂无
工作目标:
提供军用及民用全球定位与导航服务。
预期寿命:
15年
卫星简介
全球定位系统(英语:Global Positioning System,通常简称GPS),又称全球卫星定位系统,是美国国防部研制,美国太空军运营与维护的中地球轨道卫星导航系统。它可以为地球表面约98%的地区提供准确的定位、测速和高精度的标准时间。全球定位系统可满足位于全球地面任何一处或近地空间的军事用户连续且精确地确定三维位置、三维运动和时间的需求。该系统包括太空中的31颗GPS人造卫星.该卫星仍在工作。
2D轨道图
3D轨道图
轨道高度分析图
轨道倾角分析图
轨道综合分析图
查看轨道综合分析图